Orbital Elements at Epoch 2459200.5 (2020-Dec-17.0) TDB
Reference: JPL 20 (heliocentric ecliptic J2000)
Element | Value | Uncertainty (1-sigma) | Units |
e | .05433109724592033 | 3.787e-08 | |
a | 2.696785973615933 | 1.7721e-08 | au |
q | 2.550266632631971 | 1.0312e-07 | au |
i | 15.45399601066029 | 5.9543e-06 | deg |
node | 32.58612368206816 | 1.5889e-05 | deg |
peri | 228.7165749379752 | 5.8591e-05 | deg |
M | 61.51999128732544 | 5.4824e-05 | deg |
tp | 2458924.072075839205 (2020-Mar-15.57207584) | 0.00024676 | TDB |
period | 1617.588862019044 4.43 | 1.5945e-05 4.366e-08 | d yr |
n | .2225534611747109 | 2.1937e-09 | deg/d |
Q | 2.843305314599894 | 1.8684e-08 | au |
|
| | Orbit Determination Parameters
Additional Information
|